,,,PA_Meas_PMT16A,,PR_Meas_QMR101_102,,RH_Meas_QMH101,,SR_Meas_QMS101,,TA_Meas_QMH101,,GenWind,,GenWind,
date,time,status,PA,status,PR,status,RH,status,SR,status,TA,status,DirAvg,status,SpdAvg,
2011-06-11, 00:00:04,VALID,1003.58,VALID,0,INVALID,163.639,VALID,0,VALID,25.3584,VALID,155,VALID,0,
2011-06-11, 00:01:04,VALID,1003.58,VALID,0,INVALID,163.655,VALID,0,VALID,25.3195,VALID,155,VALID,0,
2011-06-11, 00:02:04,VALID,1003.6,VALID,0,INVALID,163.639,VALID,0,VALID,25.3019,VALID,155,VALID,0,
2011-06-11, 00:03:04,VALID,1003.57,VALID,0,INVALID,163.655,VALID,0,VALID,25.2611,VALID,155,VALID,0,
2011-06-11, 00:04:04,VALID,1003.58,VALID,0,INVALID,163.647,VALID,0,VALID,25.2416,VALID,155,VALID,0,
2011-06-11, 00:05:04,VALID,1003.61,VALID,0,INVALID,163.662,VALID,0,VALID,25.2027,VALID,155,VALID,0,
2011-06-11, 00:06:04,VALID,1003.6,VALID,0,INVALID,163.639,VALID,0,VALID,25.1637,VALID,155,VALID,0,
2011-06-11, 00:07:04,VALID,1003.59,VALID,0,INVALID,163.662,VALID,0,VALID,25.1637,VALID,155,VALID,0,
2011-06-11, 00:08:04,VALID,1003.59,VALID,0,INVALID,163.655,VALID,0,VALID,25.1034,VALID,155,VALID,0,
2011-06-11, 00:09:04,VALID,1003.58,VALID,0,INVALID,163.67,VALID,0,VALID,25.1442,VALID,155,VALID,0,
2011-06-11, 00:10:04,VALID,1003.57,VALID,0,INVALID,163.701,VALID,0,VALID,25.1053,VALID,155,VALID,0,
2011-06-11, 00:11:04,VALID,1003.58,VALID,0,INVALID,163.662,VALID,0,VALID,25.1053,VALID,155,VALID,0,
2011-06-11, 00:12:04,VALID,1003.56,VALID,0,INVALID,163.662,VALID,0,VALID,25.0858,VALID,155,VALID,0,
2011-06-11, 00:13:04,VALID,1003.54,VALID,0,INVALID,163.655,VALID,0,VALID,25.0663,VALID,155,VALID,0,
2011-06-11, 00:14:04,VALID,1003.55,VALID,0,INVALID,163.899,VALID,0,VALID,25.0255,VALID,155,VALID,0,
2011-06-11, 00:15:04,VALID,1003.56,VALID,0,INVALID,163.655,VALID,0,VALID,25.0469,VALID,155,VALID,0,
2011-06-11, 00:16:04,VALID,1003.53,VALID,0,INVALID,163.67,VALID,0,VALID,25.0469,VALID,155,VALID,0,
2011-06-11, 00:17:04,VALID,1003.55,VALID,0,INVALID,163.685,VALID,0,VALID,25.0274,VALID,155,VALID,0,
2011-06-11, 00:18:04,VALID,1003.51,VALID,0,INVALID,163.67,VALID,0,VALID,25.0079,VALID,155,VALID,0,
2011-06-11, 00:19:04,VALID,1003.54,VALID,0,INVALID,163.678,VALID,0,VALID,24.9885,VALID,155,VALID,0,
2011-06-11, 00:20:04,VALID,1003.47,VALID,0,INVALID,163.678,VALID,0,VALID,24.9282,VALID,155,VALID,0,
2011-06-11, 00:21:04,VALID,1003.44,VALID,0,INVALID,163.685,VALID,0,VALID,24.93,VALID,155,VALID,0,
2011-06-11, 00:22:04,VALID,1003.46,VALID,0,INVALID,163.662,VALID,0,VALID,24.93,VALID,155,VALID,0,
2011-06-11, 00:23:04,VALID,1003.45,VALID,0,INVALID,163.67,VALID,0,VALID,24.9106,VALID,155,VALID,0,
2011-06-11, 00:24:04,VALID,1003.44,VALID,0,INVALID,163.678,VALID,0,VALID,24.93,VALID,155,VALID,0,
2011-06-11, 00:25:04,VALID,1003.42,VALID,0,INVALID,163.67,VALID,0,VALID,24.93,VALID,155,VALID,0,
2011-06-11, 00:26:04,VALID,1003.45,VALID,0,INVALID,163.685,VALID,0,VALID,24.93,VALID,200,VALID,0,
2011-06-11, 00:27:04,VALID,1003.41,VALID,0,INVALID,163.678,VALID,0,VALID,24.9087,VALID,1,VALID,0,
2011-06-11, 00:28:04,VALID,1003.43,VALID,0,INVALID,163.678,VALID,0,VALID,24.8892,VALID,1,VALID,0,
2011-06-11, 00:29:04,VALID,1003.4,VALID,0,INVALID,163.662,VALID,0,VALID,24.8911,VALID,360,VALID,0,
2011-06-11, 00:30:04,VALID,1003.41,VALID,0,INVALID,163.678,VALID,0,VALID,24.8716,VALID,359,VALID,0,
2011-06-11, 00:31:04,VALID,1003.42,VALID,0,INVALID,163.701,VALID,0,VALID,24.8522,VALID,338,VALID,0,
2011-06-11, 00:32:04,VALID,1003.39,VALID,0,INVALID,163.685,VALID,0,VALID,24.8132,VALID,351,VALID,0,
2011-06-11, 00:33:04,VALID,1003.36,VALID,0,INVALID,163.708,VALID,0,VALID,24.8522,VALID,354,VALID,0,
2011-06-11, 00:34:04,VALID,1003.36,VALID,0,INVALID,163.67,VALID,0,VALID,24.8503,VALID,350,VALID,0,
2011-06-11, 00:35:04,VALID,1003.32,VALID,0,INVALID,163.678,VALID,0,VALID,24.8503,VALID,345,VALID,0,
2011-06-11, 00:36:04,VALID,1003.32,VALID,0,INVALID,163.693,VALID,0,VALID,24.8716,VALID,346,VALID,0,
2011-06-11, 00:37:04,VALID,1003.31,VALID,0,INVALID,163.67,VALID,0,VALID,24.8697,VALID,346,VALID,0,
2011-06-11, 00:38:04,VALID,1003.29,VALID,0,INVALID,163.693,VALID,0,VALID,24.8911,VALID,347,VALID,0,
2011-06-11, 00:39:04,VALID,1003.3,VALID,0,INVALID,163.67,VALID,0,VALID,24.8911,VALID,347,VALID,0,
2011-06-11, 00:40:04,VALID,1003.28,VALID,0,INVALID,163.693,VALID,0,VALID,24.8697,VALID,347,VALID,0,
2011-06-11, 00:41:04,VALID,1003.26,VALID,0,INVALID,163.678,VALID,0,VALID,24.8697,VALID,347,VALID,0,
2011-06-11, 00:42:04,VALID,1003.3,VALID,0,INVALID,163.693,VALID,0,VALID,24.8911,VALID,347,VALID,0,
2011-06-11, 00:43:04,VALID,1003.29,VALID,0,INVALID,163.678,VALID,0,VALID,24.8503,VALID,347,VALID,0,
2011-06-11, 00:44:04,VALID,1003.27,VALID,0,INVALID,163.723,VALID,0,VALID,24.8716,VALID,347,VALID,0,
2011-06-11, 00:45:04,VALID,1003.27,VALID,0,INVALID,163.708,VALID,0,VALID,24.8503,VALID,347,VALID,0,
2011-06-11, 00:46:04,VALID,1003.26,VALID,0,INVALID,163.708,VALID,0,VALID,24.8503,VALID,347,VALID,0,
2011-06-11, 00:47:04,VALID,1003.26,VALID,0,INVALID,163.678,VALID,0,VALID,24.8716,VALID,347,VALID,0,
2011-06-11, 00:48:04,VALID,1003.25,VALID,0,INVALID,163.693,VALID,0,VALID,24.8522,VALID,347,VALID,0,
2011-06-11, 00:49:04,VALID,1003.25,VALID,0,INVALID,163.693,VALID,0,VALID,24.8308,VALID,347,VALID,0,
2011-06-11, 00:50:04,VALID,1003.21,VALID,0,INVALID,163.701,VALID,0,VALID,24.8522,VALID,347,VALID,0,
2011-06-11, 00:51:04,VALID,1003.21,VALID,0,INVALID,163.701,VALID,0,VALID,24.8503,VALID,347,VALID,0,
2011-06-11, 00:52:04,VALID,1003.21,VALID,0,INVALID,163.67,VALID,0,VALID,24.8308,VALID,347,VALID,0,
2011-06-11, 00:53:04,VALID,1003.17,VALID,0,INVALID,163.67,VALID,0,VALID,24.8113,VALID,347,VALID,0,
2011-06-11, 00:54:04,VALID,1003.19,VALID,0,INVALID,163.685,VALID,0,VALID,24.7724,VALID,347,VALID,0,
2011-06-11, 00:55:04,VALID,1003.16,VALID,0,INVALID,163.716,VALID,0,VALID,24.7937,VALID,92,VALID,0,
2011-06-11, 00:56:04,VALID,1003.14,VALID,0,INVALID,163.708,VALID,0,VALID,24.7335,VALID,92,VALID,0,
2011-06-11, 00:57:04,VALID,1003.11,VALID,0,INVALID,163.701,VALID,0,VALID,24.7548,VALID,92,VALID,0,
2011-06-11, 00:58:04,VALID,1003.14,VALID,0,INVALID,163.716,VALID,0,VALID,24.714,VALID,92,VALID,0,
2011-06-11, 00:59:04,VALID,1003.14,VALID,0,INVALID,163.701,VALID,0,VALID,24.7159,VALID,92,VALID,0,
2011-06-11, 01:00:04,VALID,1003.13,VALID,0,INVALID,163.693,VALID,0,VALID,24.675,VALID,92,VALID,0,
2011-06-11, 01:01:04,VALID,1003.14,VALID,0,INVALID,163.708,VALID,0,VALID,24.6964,VALID,92,VALID,0,
2011-06-11, 01:02:04,VALID,1003.13,VALID,0,INVALID,163.693,VALID,0,VALID,24.675,VALID,92,VALID,0,
2011-06-11, 01:03:04,VALID,1003.1,VALID,0,INVALID,163.678,VALID,0,VALID,24.6574,VALID,92,VALID,0,
2011-06-11, 01:04:04,VALID,1003.06,VALID,0,INVALID,163.701,VALID,0,VALID,24.6964,VALID,92,VALID,0,
2011-06-11, 01:05:04,VALID,1003.07,VALID,0,INVALID,163.716,VALID,0,VALID,24.6556,VALID,92,VALID,0,
2011-06-11, 01:06:04,VALID,1003.04,VALID,0,INVALID,163.723,VALID,0,VALID,24.675,VALID,92,VALID,0,
2011-06-11, 01:07:04,VALID,1003.01,VALID,0,INVALID,163.693,VALID,0,VALID,24.6556,VALID,92,VALID,0,
2011-06-11, 01:08:04,VALID,1002.99,VALID,0,INVALID,163.701,VALID,0,VALID,24.6945,VALID,92,VALID,0,
2011-06-11, 01:09:04,VALID,1002.96,VALID,0,INVALID,163.701,VALID,0,VALID,24.675,VALID,92,VALID,0,
2011-06-11, 01:10:04,VALID,1002.94,VALID,0,INVALID,163.739,VALID,0,VALID,24.675,VALID,92,VALID,0,
2011-06-11, 01:11:04,VALID,1002.94,VALID,0,INVALID,163.693,VALID,0,VALID,24.6556,VALID,92,VALID,0,
2011-06-11, 01:12:04,VALID,1002.94,VALID,0,INVALID,163.701,VALID,0,VALID,24.6556,VALID,92,VALID,0,
2011-06-11, 01:13:04,VALID,1002.9,VALID,0,INVALID,163.701,VALID,0.100563,VALID,24.6556,VALID,92,VALID,0,
2011-06-11, 01:14:04,VALID,1002.91,VALID,0,INVALID,163.67,VALID,0,VALID,24.638,VALID,92,VALID,0,
2011-06-11, 01:15:04,VALID,1002.92,VALID,0,INVALID,163.693,VALID,0,VALID,24.6574,VALID,92,VALID,0,
2011-06-11, 01:16:04,VALID,1002.91,VALID,0,INVALID,163.708,VALID,0,VALID,24.6574,VALID,92,VALID,0,
2011-06-11, 01:17:04,VALID,1002.9,VALID,0,INVALID,163.693,VALID,0,VALID,24.638,VALID,92,VALID,0,
2011-06-11, 01:18:04,VALID,1002.91,VALID,0,INVALID,163.708,VALID,0,VALID,24.6166,VALID,92,VALID,0,
2011-06-11, 01:19:04,VALID,1002.93,VALID,0,INVALID,163.716,VALID,0,VALID,24.638,VALID,92,VALID,0,
2011-06-11, 01:20:04,VALID,1002.96,VALID,0,INVALID,163.685,VALID,0,VALID,24.6166,VALID,92,VALID,0,
2011-06-11, 01:21:04,VALID,1002.92,VALID,0,INVALID,163.708,VALID,0,VALID,24.638,VALID,92,VALID,0,
2011-06-11, 01:22:04,VALID,1002.92,VALID,0,INVALID,163.708,VALID,0,VALID,24.5972,VALID,92,VALID,0,
2011-06-11, 01:23:04,VALID,1002.91,VALID,0,INVALID,163.716,VALID,0,VALID,24.5972,VALID,92,VALID,0,
2011-06-11, 01:24:04,VALID,1002.89,VALID,0,INVALID,163.716,VALID,0,VALID,24.5972,VALID,92,VALID,0,
2011-06-11, 01:25:04,VALID,1002.89,VALID,0,INVALID,163.731,VALID,0,VALID,24.5972,VALID,92,VALID,0,
2011-06-11, 01:26:04,VALID,1002.86,VALID,0,INVALID,163.731,VALID,0,VALID,24.6166,VALID,92,VALID,0,
2011-06-11, 01:27:04,VALID,1002.87,VALID,0,INVALID,163.723,VALID,0,VALID,24.6185,VALID,92,VALID,0,
2011-06-11, 01:28:04,VALID,1002.88,VALID,0,INVALID,163.693,VALID,0,VALID,24.6185,VALID,92,VALID,0,
2011-06-11, 01:29:04,VALID,1002.85,VALID,0,INVALID,163.739,VALID,0,VALID,24.6166,VALID,92,VALID,0,
2011-06-11, 01:30:04,VALID,1002.85,VALID,0,INVALID,163.701,VALID,0,VALID,24.5972,VALID,92,VALID,0,
2011-06-11, 01:31:04,VALID,1002.82,VALID,0,INVALID,163.685,VALID,0.100563,VALID,24.638,VALID,92,VALID,0,
2011-06-11, 01:32:04,VALID,1002.81,VALID,0,INVALID,163.708,VALID,0.100563,VALID,24.6166,VALID,92,VALID,0,
2011-06-11, 01:33:04,VALID,1002.81,VALID,0,INVALID,163.708,VALID,0,VALID,24.638,VALID,92,VALID,0,
2011-06-11, 01:34:04,VALID,1002.76,VALID,0,INVALID,163.716,VALID,0,VALID,24.5972,VALID,92,VALID,0,
2011-06-11, 01:35:04,VALID,1002.74,VALID,0,INVALID,163.701,VALID,0,VALID,24.5972,VALID,92,VALID,0,
2011-06-11, 01:36:04,VALID,1002.73,VALID,0,INVALID,163.723,VALID,0,VALID,24.5777,VALID,92,VALID,0,
2011-06-11, 01:37:04,VALID,1002.68,VALID,0,INVALID,163.708,VALID,0,VALID,24.6185,VALID,92,VALID,0,
2011-06-11, 01:38:04,VALID,1002.67,VALID,0,INVALID,163.716,VALID,0,VALID,24.599,VALID,92,VALID,0,
2011-06-11, 01:39:04,VALID,1002.66,VALID,0,INVALID,163.716,VALID,0,VALID,24.5796,VALID,92,VALID,0,
2011-06-11, 01:40:04,VALID,1002.62,VALID,0,INVALID,163.723,VALID,0,VALID,24.5582,VALID,92,VALID,0,
2011-06-11, 01:41:04,VALID,1002.61,VALID,0,INVALID,163.731,VALID,0,VALID,24.5796,VALID,92,VALID,0,
2011-06-11, 01:42:04,VALID,1002.59,VALID,0,INVALID,163.701,VALID,0,VALID,24.5388,VALID,92,VALID,0,
2011-06-11, 01:43:04,VALID,1002.54,VALID,0,INVALID,163.723,VALID,0,VALID,24.5406,VALID,92,VALID,0,
2011-06-11, 01:44:04,VALID,1002.53,VALID,0,INVALID,163.701,VALID,0,VALID,24.5212,VALID,92,VALID,0,
2011-06-11, 01:45:04,VALID,1002.5,VALID,0,INVALID,163.693,VALID,0,VALID,24.5212,VALID,92,VALID,0,
2011-06-11, 01:46:04,VALID,1002.46,VALID,0,INVALID,163.739,VALID,0,VALID,24.4998,VALID,92,VALID,0,
2011-06-11, 01:47:04,VALID,1002.45,VALID,0,INVALID,163.716,VALID,0,VALID,24.5017,VALID,92,VALID,0,
2011-06-11, 01:48:04,VALID,1002.41,VALID,0,INVALID,163.701,VALID,0,VALID,24.5017,VALID,92,VALID,0,
2011-06-11, 01:49:04,VALID,1002.42,VALID,0,INVALID,163.716,VALID,0,VALID,24.5017,VALID,92,VALID,0,
2011-06-11, 01:50:04,VALID,1002.37,VALID,0,INVALID,163.739,VALID,0,VALID,24.4609,VALID,92,VALID,0,
2011-06-11, 01:51:04,VALID,1002.36,VALID,0,INVALID,163.731,VALID,0,VALID,24.4822,VALID,92,VALID,0,
2011-06-11, 01:52:04,VALID,1002.34,VALID,0,INVALID,163.731,VALID,0,VALID,24.4628,VALID,92,VALID,0,
2011-06-11, 01:53:04,VALID,1002.3,VALID,0,INVALID,163.708,VALID,0,VALID,24.4414,VALID,92,VALID,0,
2011-06-11, 01:54:04,VALID,1002.29,VALID,0,INVALID,163.731,VALID,0,VALID,24.4628,VALID,92,VALID,0,
2011-06-11, 01:55:04,VALID,1002.29,VALID,0,INVALID,163.731,VALID,0,VALID,24.422,VALID,92,VALID,0,
2011-06-11, 01:56:04,VALID,1002.26,VALID,0,INVALID,163.693,VALID,0,VALID,24.4433,VALID,92,VALID,0,
2011-06-11, 01:57:05,VALID,1002.26,VALID,0,INVALID,163.716,VALID,0,VALID,24.4646,VALID,92,VALID,0,
2011-06-11, 01:58:05,VALID,1002.24,VALID,0,INVALID,163.708,VALID,0,VALID,24.4025,VALID,92,VALID,0,
2011-06-11, 01:59:05,VALID,1002.24,VALID,0,INVALID,163.739,VALID,0,VALID,24.4238,VALID,92,VALID,0,
2011-06-11, 02:00:05,VALID,1002.23,VALID,0,INVALID,163.723,VALID,0,VALID,24.4238,VALID,92,VALID,0,
2011-06-11, 02:01:05,VALID,1002.23,VALID,0,INVALID,163.731,VALID,0,VALID,24.4238,VALID,92,VALID,0,
2011-06-11, 02:02:05,VALID,1002.23,VALID,0,INVALID,163.693,VALID,0,VALID,24.4025,VALID,92,VALID,0,
2011-06-11, 02:03:05,VALID,1002.22,VALID,0,INVALID,163.739,VALID,0,VALID,24.4238,VALID,92,VALID,0,
2011-06-11, 02:04:05,VALID,1002.21,VALID,0,INVALID,163.739,VALID,0,VALID,24.4025,VALID,92,VALID,0,
2011-06-11, 02:05:05,VALID,1002.19,VALID,0,INVALID,163.731,VALID,0,VALID,24.4025,VALID,92,VALID,0,
2011-06-11, 02:06:05,VALID,1002.16,VALID,0,INVALID,163.746,VALID,0,VALID,24.422,VALID,92,VALID,0,
2011-06-11, 02:07:05,VALID,1002.19,VALID,0,INVALID,163.731,VALID,0,VALID,24.4238,VALID,92,VALID,0,
2011-06-11, 02:08:05,VALID,1002.22,VALID,0,INVALID,163.716,VALID,0,VALID,24.4025,VALID,92,VALID,0,
2011-06-11, 02:09:05,VALID,1002.22,VALID,0,INVALID,163.723,VALID,0,VALID,24.4238,VALID,92,VALID,0,
2011-06-11, 02:10:05,VALID,1002.21,VALID,0,INVALID,163.716,VALID,0,VALID,24.4238,VALID,92,VALID,0,
2011-06-11, 02:11:05,VALID,1002.19,VALID,0,INVALID,163.746,VALID,0,VALID,24.4025,VALID,92,VALID,0,
2011-06-11, 02:12:05,VALID,1002.21,VALID,0,INVALID,163.708,VALID,0,VALID,24.4238,VALID,92,VALID,0,
2011-06-11, 02:13:05,VALID,1002.2,VALID,0,INVALID,163.723,VALID,0,VALID,24.4025,VALID,92,VALID,0,
2011-06-11, 02:14:05,VALID,1002.21,VALID,0,INVALID,163.693,VALID,0,VALID,24.4433,VALID,92,VALID,0,
2011-06-11, 02:15:05,VALID,1002.24,VALID,0,INVALID,163.746,VALID,0,VALID,24.4025,VALID,92,VALID,0,
2011-06-11, 02:16:05,VALID,1002.22,VALID,0,INVALID,163.731,VALID,0,VALID,24.4238,VALID,92,VALID,0,
2011-06-11, 02:17:05,VALID,1002.21,VALID,0,INVALID,163.693,VALID,0,VALID,24.4433,VALID,92,VALID,0,
2011-06-11, 02:18:05,VALID,1002.22,VALID,0,INVALID,163.731,VALID,0,VALID,24.422,VALID,92,VALID,0,
2011-06-11, 02:19:05,VALID,1002.24,VALID,0,INVALID,163.739,VALID,0,VALID,24.4414,VALID,92,VALID,0,
2011-06-11, 02:20:05,VALID,1002.22,VALID,0,INVALID,163.723,VALID,0,VALID,24.4433,VALID,92,VALID,0,
2011-06-11, 02:21:05,VALID,1002.2,VALID,0,INVALID,163.731,VALID,0,VALID,24.4414,VALID,59,VALID,0,
2011-06-11, 02:22:05,VALID,1002.21,VALID,0,INVALID,163.708,VALID,0,VALID,24.4609,VALID,58,VALID,0,
2011-06-11, 02:23:05,VALID,1002.19,VALID,0,INVALID,163.708,VALID,0,VALID,24.5017,VALID,55,VALID,0,
2011-06-11, 02:24:05,VALID,1002.17,VALID,0,INVALID,163.693,VALID,0,VALID,24.5212,VALID,19,VALID,0,
2011-06-11, 02:25:05,VALID,1002.16,VALID,0,INVALID,163.701,VALID,0,VALID,24.5601,VALID,19,VALID,0,
2011-06-11, 02:26:05,VALID,1002.17,VALID,0,INVALID,163.723,VALID,0,VALID,24.5601,VALID,354,VALID,0,
2011-06-11, 02:27:05,VALID,1002.12,VALID,0,INVALID,163.716,VALID,0,VALID,24.599,VALID,355,VALID,0,
2011-06-11, 02:28:05,VALID,1002.13,VALID,0,INVALID,163.708,VALID,0,VALID,24.5777,VALID,353,VALID,0,
2011-06-11, 02:29:05,VALID,1002.14,VALID,0,INVALID,163.723,VALID,0,VALID,24.6185,VALID,353,VALID,0,
2011-06-11, 02:30:05,VALID,1002.12,VALID,0,INVALID,163.716,VALID,0,VALID,24.6574,VALID,353,VALID,0,
2011-06-11, 02:31:05,VALID,1002.13,VALID,0,INVALID,163.67,VALID,0,VALID,24.6574,VALID,353,VALID,0,
2011-06-11, 02:32:05,VALID,1002.18,VALID,0,INVALID,163.685,VALID,0,VALID,24.6983,VALID,353,VALID,0,
2011-06-11, 02:33:05,VALID,1002.18,VALID,0,INVALID,163.693,VALID,0,VALID,24.675,VALID,353,VALID,0,
2011-06-11, 02:34:05,VALID,1002.19,VALID,0,INVALID,163.701,VALID,0.100563,VALID,24.675,VALID,353,VALID,0,
2011-06-11, 02:35:05,VALID,1002.21,VALID,0,INVALID,163.678,VALID,0,VALID,24.6964,VALID,344,VALID,0,
2011-06-11, 02:36:05,VALID,1002.21,VALID,0,INVALID,163.708,VALID,0,VALID,24.6964,VALID,350,VALID,0,
2011-06-11, 02:37:05,VALID,1002.23,VALID,0,INVALID,163.701,VALID,0,VALID,24.6945,VALID,349,VALID,0,
2011-06-11, 02:38:05,VALID,1002.21,VALID,0,INVALID,163.685,VALID,0,VALID,24.7372,VALID,353,VALID,0,
2011-06-11, 02:39:05,VALID,1002.19,VALID,0,INVALID,163.701,VALID,0,VALID,24.7353,VALID,341,VALID,0,
2011-06-11, 02:40:05,VALID,1002.19,VALID,0,INVALID,163.708,VALID,0,VALID,24.7567,VALID,354,VALID,0,
2011-06-11, 02:41:05,VALID,1002.19,VALID,0,INVALID,163.693,VALID,0,VALID,24.714,VALID,346,VALID,0,
2011-06-11, 02:42:05,VALID,1002.17,VALID,0,INVALID,163.701,VALID,0,VALID,24.714,VALID,345,VALID,0,
2011-06-11, 02:43:05,VALID,1002.15,VALID,0,INVALID,163.685,VALID,0,VALID,24.714,VALID,351,VALID,0,
2011-06-11, 02:44:05,VALID,1002.12,VALID,0,INVALID,163.708,VALID,0,VALID,24.7353,VALID,344,VALID,0,
2011-06-11, 02:45:05,VALID,1002.09,VALID,0,INVALID,163.716,VALID,0,VALID,24.7159,VALID,349,VALID,0,
2011-06-11, 02:46:05,VALID,1002.07,VALID,0,INVALID,163.678,VALID,0,VALID,24.7159,VALID,349,VALID,0,
2011-06-11, 02:47:05,VALID,1002.08,VALID,0,INVALID,163.739,VALID,0,VALID,24.6945,VALID,359,VALID,0,
2011-06-11, 02:48:05,VALID,1002.1,VALID,0,INVALID,163.678,VALID,0,VALID,24.675,VALID,347,VALID,0,
2011-06-11, 02:49:05,VALID,1002.08,VALID,0,INVALID,163.693,VALID,0,VALID,24.675,VALID,349,VALID,0,
2011-06-11, 02:50:05,VALID,1002.08,VALID,0,INVALID,163.67,VALID,0,VALID,24.675,VALID,334,VALID,0,
2011-06-11, 02:51:05,VALID,1002.04,VALID,0,INVALID,163.701,VALID,0,VALID,24.6556,VALID,340,VALID,0,
2011-06-11, 02:52:05,VALID,1002.05,VALID,0,INVALID,163.701,VALID,0,VALID,24.6574,VALID,1,VALID,0,
2011-06-11, 02:53:05,VALID,1002.07,VALID,0,INVALID,163.701,VALID,0,VALID,24.6166,VALID,339,VALID,0,
2011-06-11, 02:54:05,VALID,1002.02,VALID,0,INVALID,163.708,VALID,0,VALID,24.638,VALID,338,VALID,0,
2011-06-11, 02:55:05,VALID,1002.02,VALID,0,INVALID,163.693,VALID,0,VALID,24.599,VALID,343,VALID,0,
2011-06-11, 02:56:05,VALID,1001.99,VALID,0,INVALID,163.693,VALID,0,VALID,24.599,VALID,350,VALID,0,
2011-06-11, 02:57:05,VALID,1001.98,VALID,0,INVALID,163.723,VALID,0,VALID,24.5796,VALID,346,VALID,0,
2011-06-11, 02:58:05,VALID,1002,VALID,0,INVALID,163.723,VALID,0,VALID,24.5601,VALID,350,VALID,0,
2011-06-11, 02:59:05,VALID,1002,VALID,0,INVALID,163.731,VALID,0,VALID,24.5601,VALID,2,VALID,0,
2011-06-11, 03:00:05,VALID,1001.97,VALID,0,INVALID,163.685,VALID,0,VALID,24.5601,VALID,4,VALID,0,
2011-06-11, 03:01:05,VALID,1001.96,VALID,0,INVALID,163.716,VALID,0,VALID,24.5193,VALID,355,VALID,0,
2011-06-11, 03:02:05,VALID,1001.95,VALID,0,INVALID,163.693,VALID,0,VALID,24.5193,VALID,12,VALID,0,
2011-06-11, 03:03:05,VALID,1001.92,VALID,0,INVALID,163.708,VALID,0,VALID,24.4998,VALID,3,VALID,0,
2011-06-11, 03:04:05,VALID,1001.92,VALID,0,INVALID,163.716,VALID,0,VALID,24.5406,VALID,20,VALID,0,
2011-06-11, 03:05:05,VALID,1001.93,VALID,0,INVALID,163.708,VALID,0,VALID,24.5193,VALID,4,VALID,0,
2011-06-11, 03:06:05,VALID,1001.95,VALID,0,INVALID,163.701,VALID,0,VALID,24.5388,VALID,30,VALID,0,
2011-06-11, 03:07:05,VALID,1001.98,VALID,0,INVALID,163.708,VALID,0,VALID,24.5582,VALID,359,VALID,0,
2011-06-11, 03:08:05,VALID,1001.98,VALID,0,INVALID,163.739,VALID,0,VALID,24.5388,VALID,15,VALID,0,
2011-06-11, 03:09:05,VALID,1001.98,VALID,0,INVALID,163.708,VALID,0,VALID,24.599,VALID,18,VALID,0,
2011-06-11, 03:10:05,VALID,1001.98,VALID,0,INVALID,163.716,VALID,0,VALID,24.638,VALID,2,VALID,0,
2011-06-11, 03:11:05,VALID,1002.01,VALID,0,INVALID,163.701,VALID,0,VALID,24.6166,VALID,350,VALID,0,
2011-06-11, 03:12:05,VALID,1002.01,VALID,0,INVALID,163.708,VALID,0,VALID,24.638,VALID,359,VALID,0,
2011-06-11, 03:13:05,VALID,1002.04,VALID,0,INVALID,163.708,VALID,0,VALID,24.6574,VALID,347,VALID,0,
2011-06-11, 03:14:05,VALID,1002.06,VALID,0,INVALID,163.693,VALID,0,VALID,24.6556,VALID,356,VALID,0,
2011-06-11, 03:15:05,VALID,1002.05,VALID,0,INVALID,163.701,VALID,0,VALID,24.6964,VALID,360,VALID,0,
2011-06-11, 03:16:05,VALID,1002.05,VALID,0,INVALID,163.685,VALID,0,VALID,24.6769,VALID,352,VALID,0,
2011-06-11, 03:17:05,VALID,1002.06,VALID,0,INVALID,163.708,VALID,0,VALID,24.6945,VALID,322,VALID,0,
2011-06-11, 03:18:05,VALID,1002.1,VALID,0,INVALID,163.693,VALID,0,VALID,24.7353,VALID,259,VALID,0,
2011-06-11, 03:19:05,VALID,1002.06,VALID,0,INVALID,163.685,VALID,0,VALID,24.7335,VALID,259,VALID,0,
2011-06-11, 03:20:05,VALID,1002.06,VALID,0,INVALID,163.693,VALID,0,VALID,24.7548,VALID,259,VALID,0,
2011-06-11, 03:21:05,VALID,1002.09,VALID,0,INVALID,163.708,VALID,0,VALID,24.714,VALID,259,VALID,0,
2011-06-11, 03:22:05,VALID,1002.05,VALID,0,INVALID,163.678,VALID,0,VALID,24.714,VALID,259,VALID,0,
2011-06-11, 03:23:05,VALID,1002.08,VALID,0,INVALID,163.701,VALID,0,VALID,24.714,VALID,263,VALID,0,
2011-06-11, 03:24:05,VALID,1002.04,VALID,0,INVALID,163.685,VALID,0,VALID,24.7335,VALID,263,VALID,0,
2011-06-11, 03:25:05,VALID,1002.06,VALID,0,INVALID,163.716,VALID,0,VALID,24.7159,VALID,347,VALID,0,
2011-06-11, 03:26:05,VALID,1002.05,VALID,0,INVALID,163.716,VALID,0,VALID,24.675,VALID,354,VALID,0,
2011-06-11, 03:27:05,VALID,1002.05,VALID,0,INVALID,163.701,VALID,0.100563,VALID,24.6945,VALID,343,VALID,0,
2011-06-11, 03:28:05,VALID,1002.08,VALID,0,INVALID,163.701,VALID,0,VALID,24.6964,VALID,354,VALID,0,
2011-06-11, 03:29:05,VALID,1002.08,VALID,0,INVALID,163.723,VALID,0,VALID,24.6983,VALID,356,VALID,0,
2011-06-11, 03:30:05,VALID,1002.1,VALID,0,INVALID,163.708,VALID,0,VALID,24.6556,VALID,354,VALID,0,
2011-06-11, 03:31:05,VALID,1002.06,VALID,0,INVALID,163.693,VALID,0,VALID,24.6574,VALID,1,VALID,0,
2011-06-11, 03:32:05,VALID,1002.06,VALID,0,INVALID,163.731,VALID,0,VALID,24.638,VALID,358,VALID,0,
2011-06-11, 03:33:05,VALID,1002.04,VALID,0,INVALID,163.693,VALID,0,VALID,24.6204,VALID,353,VALID,0,
2011-06-11, 03:34:05,VALID,1002.04,VALID,0,INVALID,163.731,VALID,0,VALID,24.5777,VALID,354,VALID,0,
2011-06-11, 03:35:05,VALID,1002.01,VALID,0,INVALID,163.723,VALID,0,VALID,24.5796,VALID,359,VALID,0,
2011-06-11, 03:36:05,VALID,1002,VALID,0,INVALID,163.693,VALID,0,VALID,24.5388,VALID,6,VALID,0,
2011-06-11, 03:37:05,VALID,1001.96,VALID,0,INVALID,163.723,VALID,0,VALID,24.5406,VALID,5,VALID,0,
2011-06-11, 03:38:05,VALID,1001.97,VALID,0,INVALID,163.701,VALID,0,VALID,24.5193,VALID,11,VALID,0,
2011-06-11, 03:39:05,VALID,1001.93,VALID,0,INVALID,163.693,VALID,0,VALID,24.5212,VALID,21,VALID,0,
2011-06-11, 03:40:05,VALID,1001.94,VALID,0,INVALID,163.716,VALID,0,VALID,24.5212,VALID,16,VALID,0,
2011-06-11, 03:41:05,VALID,1001.94,VALID,0,INVALID,163.739,VALID,0,VALID,24.4998,VALID,26,VALID,0,
2011-06-11, 03:42:05,VALID,1001.93,VALID,0,INVALID,163.701,VALID,0,VALID,24.5212,VALID,20,VALID,0,
2011-06-11, 03:43:05,VALID,1001.93,VALID,0,INVALID,163.693,VALID,0,VALID,24.5796,VALID,23,VALID,0,
2011-06-11, 03:44:05,VALID,1001.91,VALID,0,INVALID,163.701,VALID,0,VALID,24.5777,VALID,15,VALID,0,
2011-06-11, 03:45:05,VALID,1001.92,VALID,0,INVALID,163.708,VALID,0,VALID,24.5564,VALID,9,VALID,0,
2011-06-11, 03:46:05,VALID,1001.9,VALID,0,INVALID,163.716,VALID,0,VALID,24.6185,VALID,16,VALID,0,
2011-06-11, 03:47:05,VALID,1001.9,VALID,0,INVALID,163.708,VALID,0,VALID,24.5972,VALID,2,VALID,0,
2011-06-11, 03:48:05,VALID,1001.91,VALID,0,INVALID,163.708,VALID,0,VALID,24.6166,VALID,22,VALID,0,
2011-06-11, 03:49:05,VALID,1001.9,VALID,0,INVALID,163.723,VALID,0,VALID,24.6574,VALID,15,VALID,0,
2011-06-11, 03:50:05,VALID,1001.92,VALID,0,INVALID,163.708,VALID,0,VALID,24.6574,VALID,12,VALID,0,
2011-06-11, 03:51:05,VALID,1001.94,VALID,0,INVALID,163.685,VALID,0.100563,VALID,24.6556,VALID,13,VALID,0,
2011-06-11, 03:52:05,VALID,1001.94,VALID,0,INVALID,163.731,VALID,0,VALID,24.6769,VALID,10,VALID,0,
2011-06-11, 03:53:05,VALID,1001.94,VALID,0,INVALID,163.723,VALID,0,VALID,24.6556,VALID,360,VALID,0,
2011-06-11, 03:54:05,VALID,1001.95,VALID,0,INVALID,163.678,VALID,0,VALID,24.6769,VALID,35,VALID,0,
2011-06-11, 03:55:05,VALID,1001.97,VALID,0,INVALID,163.723,VALID,0,VALID,24.6945,VALID,15,VALID,0,
2011-06-11, 03:56:05,VALID,1001.98,VALID,0,INVALID,163.754,VALID,0,VALID,24.675,VALID,16,VALID,0,